Location: Cz?stochówka
(50.8142°N, 19.0915°E)
Time: 07:06:01
(UTC+00:00)

Cosmos 1269 Rocket - Pass Details

Date: 13 January 2026
Orbit: 769 x 775 km, 74.1° (Epoch: 10 February)

Event Time Altitude Azimuth Distance (km) Brightness Sun altitude
Rises 05:47:13 0° 215° (SW) 3,241 7.1 -8.3°
Reaches altitude 10° 05:49:37 10° 220° (SW) 2,318 6.3 -7.9°
Maximum altitude 05:54:49 57° 299° (WNW) 910 4.1 -7.2°
Drops below altitude 10° 06:00:02 10° 18° (NNE) 2,335 6.4 -6.4°
Sets 06:02:29 0° 23° (NNE) 3,266 7.2 -6.1°
